sat.trackr.live / text

‹ back to catalog

STARLINK-32023

NORAD 60197 · 2024-124Q

PAYLOAD ACTIVE UNKNOWN

§ Identity

Operator
Country
US
Launch date
2024-07-03
Launch site
AFETR
Launch vehicle
Mass (kg)
RCS (m²)

Purposes: comms

External: N2YO · Heavens-Above · Gunter

§ Orbital elements

Epoch: 2026-09-21T21:22:38.825760Z

Period
93.85 min
Inclination
53.1597°
Eccentricity
0.0001202
Mean motion
15.34383639 rev/d
Perigee alt
461.9 km
Apogee alt
463.6 km
Semi-major
6,840.9 km
B*
-6.6605e-6
RAAN
127.0027°
Arg perigee
81.2685°
Mean anomaly
278.8453°
Rev number
12,439

§ Raw data

STARLINK-320231 60197U 24124Q   26264.89072715 -.00000601  00000+0 -66605-5 0  99912 60197  53.1597 127.0027 0001202  81.2685 278.8453 15.34383639124390

JSON: /api/v1/satellites/60197 · /tle

For live sub-satellite position, see the globe view (requires WebGL).

§ Visibility from observer

Set your observer location to see the next 7 days of passes ≥ 10°. The values pass through the URL so the page stays shareable.

No JS? Fill the form by hand. The geolocation button needs JavaScript.